Theta_e
302 301 301 302 303 302 302 306 316 330 334 333 333 333 332 333 333 332 331 326 324 322 321 320 317 313 310 306 300 295 293 290 290 291 291 291 292 291 292 293 291 293 291
297 298 299 299 301 302 301 302 306 319 331 333 333 334 334 333 334 332 330 327 324 322 321 318 316 312 306 300 298 295 291 290 290 290 289 288 290 290 291 291 291 290 289
296 298 296 297 298 299 300 301 303 308 325 332 332 325 327 325 328 329 329 325 324 323 321 317 316 311 308 303 300 299 296 292 290 289 292 287 288 287 287 288 288 288 286
291 294 295 296 296 297 299 300 302 303 310 326 329 329 328 327 328 330 330 328 323 322 321 318 316 311 308 304 303 301 303 300 295 293 292 290 291 286 283 285 285 285 286
292 293 295 296 296 297 296 297 299 302 305 314 326 327 327 327 321 324 325 326 319 322 320 317 312 307 306 307 305 302 302 303 298 296 294 292 289 287 286 284 284 285 285
295 296 295 297 297 297 297 296 297 299 302 306 316 325 326 320 314 315 323 317 315 316 315 314 310 307 306 304 305 304 302 299 297 295 294 292 289 287 285 284 283 282 284
295 295 297 296 297 297 298 299 298 298 300 303 308 320 324 319 317 317 320 316 313 312 312 311 307 306 306 305 303 303 301 298 295 292 291 291 289 289 287 285 283 281 281
295 295 295 296 297 297 298 298 298 299 299 299 302 308 314 316 317 315 317 316 314 314 311 310 308 306 306 304 301 300 296 294 292 290 290 289 288 288 287 285 283 280 279
296 296 296 295 297 297 298 297 298 298 299 299 299 301 306 312 314 310 310 309 307 305 306 306 306 304 303 302 299 296 294 291 290 289 289 288 288 288 287 287 285 283 277
295 296 297 296 296 297 297 297 297 297 298 300 300 302 304 308 309 304 304 302 301 303 303 303 301 301 300 297 295 292 290 289 289 289 288 287 287 286 286 286 286 283 282
296 296 297 296 297 297 299 300 300 300 302 302 300 300 300 301 300 300 298 299 300 300 300 299 298 296 295 294 291 290 289 288 288 288 288 287 288 287 286 285 284 284 282
297 297 297 296 297 298 296 293 293 294 296 297 297 298 301 301 300 299 297 297 298 298 297 296 295 293 291 290 289 288 288 288 288 287 287 286 288 286 285 284 284 283 280
297 297 297 298 298 293 291 290 290 291 294 294 294 297 298 300 299 298 298 298 297 296 295 293 291 290 289 289 289 289 288 287 287 287 287 286 286 285 284 283 283 281 282
293 292 293 295 292 290 290 290 290 291 292 294 295 298 298 298 298 297 296 295 294 292 291 290 289 288 288 288 288 288 288 288 287 287 286 285 284 284 283 282 281 281 279
289 288 289 288 288 289 291 291 290 290 292 291 292 294 295 295 294 292 292 292 292 291 289 289 289 289 289 290 289 288 287 286 285 285 284 284 285 287 286 285 282 280 280
289 289 287 289 288 289 287 287 287 288 288 289 289 290 290 290 291 290 290 290 289 289 290 289 290 291 292 293 292 288 285 284 283 282 282 282 284 285 286 287 288 286 281
288 288 287 289 289 289 289 288 288 290 289 289 289 289 289 289 289 289 289 288 288 288 288 289 289 289 291 292 290 288 284 283 282 281 281 282 283 283 281 284 287 286 288
287 288 288 289 290 290 289 290 290 290 289 289 289 289 289 288 288 288 287 287 287 287 287 287 287 287 289 291 289 287 283 281 281 280 279 278 280 281 283 282 281 281 281
288 288 288 288 289 289 289 289 289 289 288 288 288 288 288 287 287 286 285 286 286 285 285 285 285 286 288 290 289 284 281 281 280 281 280 281 280 284 287 283 281 280 280
288 288 288 288 288 288 289 288 287 287 286 287 287 288 287 286 285 285 285 285 285 284 284 284 285 287 283 288 288 284 281 279 279 280 280 283 283 286 287 284 279 276 276
288 290 289 289 289 289 288 286 286 285 286 288 288 287 287 286 286 285 285 285 284 283 281 280 280 281 282 284 288 287 280 280 279 279 279 280 285 286 286 285 277 278 281
289 289 288 288 289 289 287 286 284 286 287 287 286 285 286 287 286 285 284 282 280 278 277 277 276 277 276 284 285 286 285 284 280 279 279 279 284 283 283 281 283 284 282
288 289 289 288 288 288 287 285 286 288 287 287 286 286 286 284 281 278 277 276 276 276 275 276 274 275 277 276 284 284 285 284 281 281 282 282 282 281 278 281 282 281 275
287 288 288 287 286 288 288 288 288 288 287 284 281 278 277 276 276 277 276 275 275 274 275 275 274 274 275 276 278 280 278 282 280 279 275 278 279 279 278 277 276 275 275
289 288 287 287 286 287 287 287 287 285 281 278 278 277 276 275 275 275 274 274 274 276 275 274 275 274 274 278 282 282 280 278 280 277 274 273 273 273 273 274 274 274 274
283 285 285 285 286 285 284 285 285 281 278 277 277 276 276 276 276 276 276 285 284 285 284 283 280 279 282 283 283 283 282 281 281 274 271 271 271 272 272 272 272 273 273
Wind_Speed
10 8 9 9 8 6 8 9 8 12 9 9 10 9 11 10 9 9 11 9 9 10 10 7 7 7 8 9 8 4 4 2 3 4 2 2 2 2 1 2 2 3 3
9 9 9 8 8 9 8 8 9 10 11 9 10 8 10 10 10 9 9 10 11 11 11 9 8 9 6 7 9 6 4 3 4 4 2 1 2 1 1 1 2 3 3
15 12 7 8 7 8 9 8 10 11 10 14 7 3 3 2 4 7 8 10 11 12 12 10 9 10 9 10 10 6 6 5 2 3 4 2 5 1 1 0 1 4 3
9 6 6 7 7 9 6 7 8 8 8 9 9 13 12 12 10 11 12 10 13 13 13 12 11 10 7 9 8 7 5 5 4 2 1 2 3 4 1 1 0 2 3
7 8 6 6 6 6 6 7 7 8 9 9 9 10 11 7 3 5 8 9 9 13 13 12 11 9 7 8 10 10 7 4 5 4 3 2 1 2 3 3 2 1 2
8 7 4 5 6 6 6 4 5 7 7 7 8 11 13 8 5 5 8 5 5 7 10 10 10 10 10 11 10 9 9 6 4 3 4 3 4 3 3 2 2 2 1
10 11 13 11 9 9 8 5 5 6 3 6 6 10 12 9 12 10 9 8 6 5 10 12 12 10 9 9 9 9 7 6 4 5 4 3 3 3 3 3 1 2 1
7 8 9 9 9 8 8 8 8 7 4 4 6 7 7 5 7 6 6 7 8 8 9 9 8 9 10 9 8 6 5 6 6 7 4 3 4 4 1 4 4 1 1
7 8 7 7 8 9 10 7 8 8 6 5 6 6 6 7 9 8 5 4 4 5 9 10 12 12 11 11 10 7 7 6 6 6 5 5 3 4 2 3 2 4 3
8 7 7 7 5 7 7 8 6 7 7 7 4 5 7 6 5 5 7 7 6 7 9 10 11 11 11 11 10 8 8 8 5 6 6 5 2 4 4 3 1 2 3
8 8 8 6 6 6 6 7 8 8 7 7 6 6 4 2 2 3 5 6 8 10 10 10 10 10 12 11 10 10 9 9 7 6 6 5 5 3 1 2 1 2 2
7 7 8 7 6 6 6 7 7 7 6 6 6 6 5 2 3 4 6 6 8 9 11 12 12 11 12 12 12 11 9 9 8 6 6 6 4 4 1 1 3 2 3
8 10 10 9 7 7 6 6 6 5 5 5 6 5 4 4 3 6 7 8 10 10 11 13 13 12 13 13 12 11 11 9 8 5 6 4 3 3 3 2 3 3 2
8 10 8 6 6 6 6 6 6 6 6 5 5 6 5 5 5 7 8 8 9 13 13 13 14 13 13 13 13 12 10 9 7 5 3 3 1 3 1 3 4 3 3
5 6 8 6 5 4 6 6 6 6 4 5 9 7 7 7 10 11 12 11 10 11 13 16 16 14 12 9 12 10 7 7 6 4 2 2 5 4 0 1 3 4 3
7 8 6 5 4 8 7 6 7 7 6 8 9 9 11 12 11 12 12 13 13 13 14 14 15 14 10 18 16 11 7 5 5 3 2 3 4 5 5 7 10 8 3
6 6 6 5 7 7 6 8 8 7 8 8 9 9 10 12 13 12 12 12 13 14 14 13 13 13 11 16 15 11 6 6 3 4 3 2 2 4 4 8 11 10 14
6 5 5 5 6 6 7 7 7 8 8 8 7 8 10 11 12 12 11 10 9 12 11 11 10 8 8 13 12 9 5 5 5 4 2 1 4 5 7 5 5 5 5
4 5 5 5 5 6 6 7 8 8 8 8 8 7 9 11 12 12 10 8 10 9 8 8 8 6 5 11 9 5 4 4 4 3 3 4 5 10 12 5 3 5 5
5 5 5 5 6 6 7 8 8 7 8 7 7 8 8 11 11 10 9 8 8 9 7 8 5 7 4 5 4 7 3 3 3 3 3 8 8 12 13 6 3 4 6
5 6 6 4 5 7 7 8 7 7 6 8 8 8 9 11 9 9 6 6 7 7 7 6 4 6 6 7 10 7 3 2 2 2 3 3 12 13 15 14 3 6 9
4 6 4 4 6 7 8 8 7 5 7 8 8 8 8 6 6 7 6 6 5 5 5 5 5 5 6 8 6 7 6 6 1 2 2 4 14 14 13 10 13 13 10
5 5 4 6 5 6 7 8 5 6 8 8 8 7 7 6 5 5 5 4 5 4 4 4 4 3 3 3 7 7 8 8 3 3 6 12 12 12 8 11 12 10 3
6 6 6 6 6 6 6 7 6 7 8 8 7 5 6 6 5 4 4 4 4 4 4 4 3 2 1 2 2 1 3 6 5 4 4 7 8 8 8 6 6 4 4
6 5 6 6 7 7 7 5 5 5 7 6 5 5 5 5 5 4 4 4 2 4 4 2 3 2 2 2 5 6 3 3 6 4 3 3 3 4 4 4 4 4 4
5 6 7 7 7 7 6 5 5 7 6 6 4 4 4 4 4 4 4 10 9 9 8 5 2 2 3 6 7 9 9 9 10 3 2 2 3 4 5 5 6 5 7
Wind_Direction
263 240 232 220 230 216 224 223 196 210 187 188 192 205 211 209 209 208 208 191 192 187 192 190 178 170 173 179 166 130 147 113 153 112 37 33 63 126 171 157 166 161 139
260 244 239 235 225 229 209 223 217 214 195 196 203 200 206 216 218 211 202 193 184 186 190 185 187 182 159 154 168 155 135 114 181 141 107 178 326 22 92 152 196 182 132
282 275 253 243 244 234 214 211 217 220 204 201 191 101 89 91 195 210 206 205 192 189 194 181 180 187 179 181 179 168 146 146 176 240 146 115 219 143 9 195 213 163 147
318 304 289 278 254 247 243 202 209 225 221 203 186 199 207 210 213 214 214 200 185 189 189 187 187 187 178 179 180 157 150 144 160 159 255 54 136 165 199 311 249 161 174
348 2 346 309 302 300 277 262 222 204 213 194 200 199 213 219 194 205 217 212 186 191 189 184 177 173 167 177 174 167 165 173 153 147 157 223 89 80 131 183 229 305 210
357 6 6 25 29 17 3 316 278 244 221 205 199 202 211 194 178 193 204 193 190 176 178 180 180 174 172 170 174 171 172 165 151 151 152 200 159 173 147 131 161 191 218
7 4 7 1 359 359 358 360 356 305 254 220 222 215 214 192 200 199 205 187 188 198 197 180 171 173 171 165 158 166 157 156 154 150 152 151 126 124 127 119 152 181 328
359 358 349 346 346 343 339 339 331 318 317 276 241 226 217 200 213 206 205 201 201 205 170 175 168 154 149 150 145 142 130 139 140 135 129 123 131 115 148 135 146 141 321
351 344 337 331 335 339 330 332 321 309 310 295 277 257 236 209 211 207 186 178 157 145 162 165 154 151 150 151 146 140 136 133 126 119 125 122 121 106 103 107 143 144 178
336 333 325 318 319 320 322 334 326 294 292 297 265 261 255 237 231 169 176 156 132 138 148 148 142 148 144 141 134 128 123 121 105 107 109 87 75 90 80 81 354 71 162
328 327 320 305 302 309 342 345 358 341 343 349 348 348 340 331 124 138 125 134 130 138 137 138 138 139 132 128 117 111 112 109 104 92 88 83 84 68 99 156 147 192 167
328 326 325 314 319 355 351 14 1 3 357 356 9 17 358 29 92 113 107 115 123 126 130 127 124 122 119 114 113 110 105 106 101 93 97 95 83 86 265 269 219 237 202
345 342 337 334 1 11 0 6 1 356 9 33 48 37 43 62 105 114 118 127 126 119 120 117 118 117 110 106 100 100 95 87 90 86 84 92 104 208 188 231 243 236 251
7 326 318 353 27 21 8 4 7 14 9 47 80 68 61 78 78 86 94 97 107 110 109 103 99 94 93 92 92 91 87 90 90 89 86 83 77 260 127 251 253 244 243
342 11 13 10 19 21 15 16 27 30 6 52 58 66 78 79 79 84 88 89 93 97 99 98 93 92 88 89 96 99 102 106 91 83 72 129 220 238 217 220 261 240 222
4 21 6 9 19 39 24 7 25 28 33 58 72 76 76 78 79 81 89 91 87 87 90 91 94 92 94 102 103 102 92 97 117 142 108 42 45 27 335 310 305 293 256
16 14 25 2 40 34 36 27 23 29 44 57 75 79 87 90 84 80 77 83 92 93 87 84 91 95 101 110 105 107 110 124 136 94 83 30 337 346 302 302 313 311 302
14 19 32 36 44 43 57 53 38 35 45 48 58 81 89 87 89 86 87 82 81 87 93 87 80 93 100 107 100 115 138 96 88 89 115 283 315 307 302 287 280 285 282
47 56 63 62 58 55 67 74 58 50 52 52 45 55 82 90 87 83 81 81 85 80 79 86 85 83 119 115 128 141 93 100 89 81 27 307 304 309 313 312 286 289 294
66 86 80 77 76 56 59 67 66 61 54 56 65 69 73 79 80 77 72 66 69 80 79 76 92 110 79 148 114 100 89 73 58 17 331 321 321 314 313 327 345 319 289
99 85 80 82 79 82 86 78 73 68 73 77 74 75 75 79 81 81 73 82 81 80 82 92 66 66 71 49 75 81 79 64 39 306 292 290 326 329 333 324 1 287 290
87 84 90 64 60 78 91 85 77 70 84 87 80 74 75 77 75 86 78 83 90 94 95 98 71 46 36 54 51 41 30 4 318 317 304 300 336 334 329 330 310 315 344
116 109 94 89 76 83 104 105 93 95 93 85 78 73 75 78 72 91 94 86 83 89 87 78 68 53 32 23 27 21 5 354 20 327 351 344 338 333 333 321 334 344 324
138 130 121 97 93 88 87 89 103 111 101 100 101 88 91 84 74 73 77 90 89 89 82 77 77 49 14 346 327 337 341 5 2 19 352 339 342 340 332 339 327 309 309
139 140 124 120 115 117 113 120 131 122 102 94 93 84 80 83 80 74 103 90 84 122 121 128 140 112 3 300 3 3 354 6 329 45 359 341 329 325 321 321 314 314 311
142 137 128 131 134 131 130 133 108 112 119 110 106 108 97 86 87 89 54 72 73 93 93 121 97 7 347 352 359 360 353 351 350 24 333 316 307 311 315 317 316 311 313